347  
ASUS44 KSHV 150310  
RWRSHV  
 
THE FOUR STATE AREA WEATHER ROUNDUP  
NATIONAL WEATHER SERVICE SHREVEPORT LA  
1000 PM CDT SUN AUG 14 2022  
 
NOTE: "FAIR" INDICATES FEW OR NO CLOUDS BELOW 12000 FEET  
WITH NO SIGNIFICANT WEATHER AND/OR S TO VISIBILITY
.  
 
!LAZ001-LAZ014-TXZ097-150400  
SHREVEPORT...MONROE...TEXARKANA RADIOS  
 
CITY SKY/WX TMP DP RH WIND PRES REMARKS
 
SHREVEPORT CLEAR 85 74 69 CALM 29.93R  
MONROE CLEAR 82 77 84 CALM 29.95R  
NATCHITOCHES CLEAR 79 76 90 CALM 29.94R  
TEXARKANA CLEAR 87 73 62 E5 29.94R  
ATLANTA FAIR 81 77 85 CALM 29.92R  

 
 
!LAZ001-LAZ014-TXZ097-150400  
OTHER LOCATIONS...  
 
CITY SKY/WX TMP DP RH WIND PRES REMARKS
 
DOWNTOWN SHV MOCLDY 91 72 53 S7 29.93R HX 98  
BOSSIER CITY CLOUDY 86 73 64 E5 29.92R  
RUSTON PTCLDY 84 73 70 CALM 29.98S  
LITTLE ROCK MOCLDY 84 72 67 CALM 29.93S  
EL DORADO CLEAR 80 77 90 CALM 29.95R  
JACKSON CLEAR 79 73 82 CALM 29.96R  
NEW ORLEANS PTCLDY 83 77 82 S6 29.96R  
HOUSTON MOCLDY 82 75 79 S6 29.95R  
LUFKIN PTCLDY 84 71 65 S5 29.95R  
TYLER PTCLDY 87 70 56 SE7 29.93R  
DAL FT WORTH PTCLDY 92 66 42 S9 29.90R  

 
 
!TXZ136-TXZ165-150400  
TYLER...LUFKIN RADIOS  
 
CITY SKY/WX TMP DP RH WIND PRES REMARKS
 
TYLER PTCLDY 87 70 56 SE7 29.93R  
GILMER CLEAR 88 66 48 CALM 29.94R  
LONGVIEW CLEAR 86 70 58 S7 29.93R  
LUFKIN PTCLDY 84 71 65 S5 29.95R  

 
 
!TXZ136-TXZ165-150400  
OTHER LOCATIONS...  
 
CITY SKY/WX TMP DP RH WIND PRES REMARKS
 
NACOGDOCHES PTCLDY 81 73 76 CALM 29.95R  
BEAUMONT PTCLDY 78 76 93 S3 29.95R  
HOUSTON MOCLDY 82 75 79 S6 29.95R  
COLLEGE STN PTCLDY 85 68 56 S7 29.94R  
AUSTIN MOCLDY 82 67 60 SE9 29.94R  
DAL FT WORTH PTCLDY 92 66 42 S9 29.90R  
TEXARKANA CLEAR 87 73 62 E5 29.94R  
SHREVEPORT CLEAR 85 74 69 CALM 29.93R  
FORT POLK CLEAR 83 69 63 CALM 29.94R  
LAKE CHARLES CLEAR 78 74 87 S3 29.95R  

 
 
 
CLICK HERE TO GO TO PREVIOUS BULLETINS.

The Nexlab LA Page
The Nexlab TX Page
The Nexlab AR Page
The Nexlab OK Page Main Text Page